Location: Dead Woman Crossing
(43.5369°N, 106.3228°W)
Time: 02:14:55
(UTC+00:00)

UWE-3 - Pass Details

Date: 30 June 2022
Orbit: 583 x 677 km, 97.7° (Epoch: 16 August)

Event Time Altitude Azimuth Distance (km) Brightness Sun altitude
Rises 09:58:41 0° 20° (NNE) 2,887 ? -12.8°
Reaches altitude 10° 10:00:59 10° 29° (NNE) 1,992 ? -12.5°
Maximum altitude 10:05:01 37° 98° (E) 980 ? -12.0°
Drops below altitude 10° 10:09:08 10° 166° (SSE) 2,032 ? -11.5°
Enters shadow 10:10:39 - 172° (S) 2,614 ? -11.4°
